Tracking 21094 objects as of 12-Aug-2020
HD Live streaming from Space Station
objects crossing your sky now
Track the most recent launched group of Starlink satellites

DMSP 5D-2 F11 DEB

Track DMSP 5D-2 F11 DEB now!
10-day predictions


NORAD ID: 28310
Int'l Code: 1991-082X
Perigee: 765.7 km
Apogee: 776.9 km
Inclination: 98.6 °
Period: 100.1 minutes
Semi major axis: 7142 km
RCS: 0.0074 m2 (small)
Launch date: November 28, 1991
Source: United States (US)
Launch site: AIR FORCE WESTERN TEST RANGE (AFWTR)

Note: This is SATELLITE DEBRIS
aabbcc
Your satellite tracking list
Your tracking list is empty




NASA's NSSDC Master Catalog

Two Line Element Set (TLE):
1 28310U 91082X   20224.91700001 +.00000644 +00000-0 +22665-3 0  9990
2 28310 098.6469 273.7792 0007835 262.7072 269.4866 14.38278210849125
Source of the keplerian elements: AFSPC